Wetterdaten: Samstag, 19.03.2016
Datum Zeit Temperatur Luftfeuchte Luftdruck Regen Wind Richtung Richtung Sonnenschein ET UV Solar Taupunkt Windchill Windben
19.03.2016 00:00 3,5 C 84 % 1021,2 hPa 0,0 l/m 0,0 km/h (0 Bft) NW 309 0 min 0,000 mm 0,0 UV-I 0 W/m 1,1 C 3,5 C 0,0 km/h (0 Bft)
19.03.2016 00:05 3,5 C 84 % 1021,2 hPa 0,0 l/m 0,0 km/h (0 Bft) NW 309 0 min 0,000 mm 0,0 UV-I 0 W/m 1,1 C 3,5 C 0,0 km/h (0 Bft)
19.03.2016 00:10 3,5 C 84 % 1021,1 hPa 0,0 l/m 0,0 km/h (0 Bft) NW 309 0 min 0,000 mm 0,0 UV-I 0 W/m 1,1 C 3,5 C 0,0 km/h (0 Bft)
19.03.2016 00:15 3,5 C 84 % 1021,1 hPa 0,0 l/m 0,0 km/h (0 Bft) NW 309 0 min 0,000 mm 0,0 UV-I 0 W/m 1,1 C 3,5 C 0,0 km/h (0 Bft)
19.03.2016 00:20 3,5 C 85 % 1021,0 hPa 0,0 l/m 0,0 km/h (0 Bft) W-SW 258 0 min 0,000 mm 0,0 UV-I 0 W/m 1,2 C 3,5 C 0,0 km/h (0 Bft)
19.03.2016 00:25 3,6 C 85 % 1021,0 hPa 0,0 l/m 0,0 km/h (0 Bft) W 276 0 min 0,000 mm 0,0 UV-I 0 W/m 1,3 C 3,6 C 0,0 km/h (0 Bft)
19.03.2016 00:30 3,6 C 85 % 1020,9 hPa 0,0 l/m 0,0 km/h (0 Bft) W-NW 296 0 min 0,000 mm 0,0 UV-I 0 W/m 1,3 C 3,6 C 0,0 km/h (0 Bft)
19.03.2016 00:35 3,6 C 85 % 1020,9 hPa 0,0 l/m 0,0 km/h (0 Bft) W-NW 296 0 min 0,000 mm 0,0 UV-I 0 W/m 1,3 C 3,6 C 0,0 km/h (0 Bft)
19.03.2016 00:40 3,6 C 85 % 1020,9 hPa 0,0 l/m 0,0 km/h (0 Bft) W-NW 296 0 min 0,000 mm 0,0 UV-I 0 W/m 1,3 C 3,6 C 0,0 km/h (0 Bft)
19.03.2016 00:45 3,6 C 86 % 1020,9 hPa 0,0 l/m 0,0 km/h (0 Bft) NW 325 0 min 0,000 mm 0,0 UV-I 0 W/m 1,5 C 3,6 C 1,6 km/h (1 Bft)
19.03.2016 00:50 3,6 C 86 % 1020,8 hPa 0,0 l/m 0,3 km/h (0 Bft) W-NW 288 0 min 0,000 mm 0,0 UV-I 0 W/m 1,5 C 3,6 C 3,2 km/h (1 Bft)
19.03.2016 00:55 3,6 C 86 % 1020,8 hPa 0,0 l/m 0,0 km/h (0 Bft) W-NW 298 0 min 0,000 mm 0,0 UV-I 0 W/m 1,5 C 3,6 C 0,0 km/h (0 Bft)
19.03.2016 01:00 3,6 C 86 % 1020,9 hPa 0,0 l/m 0,2 km/h (0 Bft) NW 311 0 min 0,000 mm 0,0 UV-I 0 W/m 1,5 C 3,6 C 3,2 km/h (1 Bft)
19.03.2016 01:05 3,6 C 86 % 1020,8 hPa 0,0 l/m 0,0 km/h (0 Bft) NW 311 0 min 0,000 mm 0,0 UV-I 0 W/m 1,5 C 3,6 C 0,0 km/h (0 Bft)
19.03.2016 01:10 3,6 C 86 % 1020,8 hPa 0,0 l/m 0,0 km/h (0 Bft) NW 316 0 min 0,000 mm 0,0 UV-I 0 W/m 1,5 C 3,6 C 1,6 km/h (1 Bft)
19.03.2016 01:15 3,6 C 86 % 1020,9 hPa 0,0 l/m 0,0 km/h (0 Bft) NW 316 0 min 0,000 mm 0,0 UV-I 0 W/m 1,5 C 3,6 C 0,0 km/h (0 Bft)
19.03.2016 01:20 3,6 C 86 % 1020,9 hPa 0,0 l/m 0,0 km/h (0 Bft) NW 316 0 min 0,000 mm 0,0 UV-I 0 W/m 1,5 C 3,6 C 0,0 km/h (0 Bft)
19.03.2016 01:25 3,7 C 86 % 1020,9 hPa 0,0 l/m 0,0 km/h (0 Bft) NW 316 0 min 0,000 mm 0,0 UV-I 0 W/m 1,6 C 3,7 C 0,0 km/h (0 Bft)
19.03.2016 01:30 3,7 C 86 % 1020,9 hPa 0,0 l/m 0,0 km/h (0 Bft) NW 316 0 min 0,000 mm 0,0 UV-I 0 W/m 1,6 C 3,7 C 0,0 km/h (0 Bft)
19.03.2016 01:35 3,7 C 86 % 1020,9 hPa 0,0 l/m 0,0 km/h (0 Bft) NW 316 0 min 0,000 mm 0,0 UV-I 0 W/m 1,6 C 3,7 C 0,0 km/h (0 Bft)
19.03.2016 01:40 3,7 C 86 % 1020,9 hPa 0,0 l/m 0,0 km/h (0 Bft) NW 316 0 min 0,000 mm 0,0 UV-I 0 W/m 1,6 C 3,7 C 0,0 km/h (0 Bft)
19.03.2016 01:45 3,7 C 87 % 1020,9 hPa 0,0 l/m 0,0 km/h (0 Bft) NW 316 0 min 0,000 mm 0,0 UV-I 0 W/m 1,7 C 3,7 C 0,0 km/h (0 Bft)
19.03.2016 01:50 3,7 C 87 % 1020,9 hPa 0,0 l/m 0,0 km/h (0 Bft) NW 316 0 min 0,000 mm 0,0 UV-I 0 W/m 1,7 C 3,7 C 0,0 km/h (0 Bft)
19.03.2016 01:55 3,7 C 87 % 1020,9 hPa 0,0 l/m 0,0 km/h (0 Bft) NW 315 0 min 0,000 mm 0,0 UV-I 0 W/m 1,7 C 3,7 C 0,0 km/h (0 Bft)
19.03.2016 02:00 3,7 C 87 % 1020,8 hPa 0,0 l/m 0,0 km/h (0 Bft) N-NW 336 0 min 0,000 mm 0,0 UV-I 0 W/m 1,7 C 3,7 C 1,6 km/h (1 Bft)
19.03.2016 02:05 3,7 C 87 % 1020,8 hPa 0,0 l/m 0,0 km/h (0 Bft) NW 325 0 min 0,000 mm 0,0 UV-I 0 W/m 1,7 C 3,7 C 0,0 km/h (0 Bft)
19.03.2016 02:10 3,7 C 87 % 1020,8 hPa 0,0 l/m 0,1 km/h (0 Bft) W-NW 286 0 min 0,000 mm 0,0 UV-I 0 W/m 1,7 C 3,7 C 3,2 km/h (1 Bft)
19.03.2016 02:15 3,7 C 87 % 1020,8 hPa 0,0 l/m 0,0 km/h (0 Bft) NW 306 0 min 0,000 mm 0,0 UV-I 0 W/m 1,7 C 3,7 C 1,6 km/h (1 Bft)
19.03.2016 02:20 3,7 C 87 % 1020,7 hPa 0,0 l/m 0,0 km/h (0 Bft) NW 306 0 min 0,000 mm 0,0 UV-I 0 W/m 1,7 C 3,7 C 0,0 km/h (0 Bft)
19.03.2016 02:25 3,7 C 87 % 1020,7 hPa 0,0 l/m 0,0 km/h (0 Bft) NW 306 0 min 0,000 mm 0,0 UV-I 0 W/m 1,7 C 3,7 C 0,0 km/h (0 Bft)
19.03.2016 02:30 3,7 C 87 % 1020,7 hPa 0,0 l/m 0,0 km/h (0 Bft) NW 306 0 min 0,000 mm 0,0 UV-I 0 W/m 1,7 C 3,7 C 0,0 km/h (0 Bft)
19.03.2016 02:35 3,7 C 87 % 1020,7 hPa 0,0 l/m 0,0 km/h (0 Bft) NW 306 0 min 0,000 mm 0,0 UV-I 0 W/m 1,7 C 3,7 C 0,0 km/h (0 Bft)
19.03.2016 02:40 3,7 C 87 % 1020,7 hPa 0,0 l/m 0,4 km/h (0 Bft) W-NW 298 0 min 0,000 mm 0,0 UV-I 0 W/m 1,7 C 3,7 C 6,4 km/h (2 Bft)
19.03.2016 02:45 3,7 C 87 % 1020,6 hPa 0,0 l/m 0,2 km/h (0 Bft) W-NW 301 0 min 0,000 mm 0,0 UV-I 0 W/m 1,7 C 3,7 C 4,8 km/h (1 Bft)
19.03.2016 02:50 3,7 C 87 % 1020,6 hPa 0,0 l/m 0,0 km/h (0 Bft) W-NW 301 0 min 0,000 mm 0,0 UV-I 0 W/m 1,7 C 3,7 C 0,0 km/h (0 Bft)
19.03.2016 02:55 3,7 C 87 % 1020,5 hPa 0,0 l/m 0,0 km/h (0 Bft) W-NW 301 0 min 0,000 mm 0,0 UV-I 0 W/m 1,7 C 3,7 C 0,0 km/h (0 Bft)
19.03.2016 03:00 3,7 C 87 % 1020,5 hPa 0,0 l/m 0,0 km/h (0 Bft) W-NW 301 0 min 0,000 mm 0,0 UV-I 0 W/m 1,7 C 3,7 C 0,0 km/h (0 Bft)
19.03.2016 03:05 3,7 C 87 % 1020,4 hPa 0,0 l/m 0,0 km/h (0 Bft) W-NW 301 0 min 0,000 mm 0,0 UV-I 0 W/m 1,7 C 3,7 C 0,0 km/h (0 Bft)
19.03.2016 03:10 3,8 C 87 % 1020,4 hPa 0,0 l/m 0,0 km/h (0 Bft) W-NW 301 0 min 0,000 mm 0,0 UV-I 0 W/m 1,8 C 3,8 C 0,0 km/h (0 Bft)
19.03.2016 03:15 3,8 C 87 % 1020,4 hPa 0,0 l/m 0,0 km/h (0 Bft) W-NW 301 0 min 0,000 mm 0,0 UV-I 0 W/m 1,8 C 3,8 C 0,0 km/h (0 Bft)
19.03.2016 03:20 3,8 C 87 % 1020,4 hPa 0,0 l/m 0,0 km/h (0 Bft) W-NW 301 0 min 0,000 mm 0,0 UV-I 0 W/m 1,8 C 3,8 C 0,0 km/h (0 Bft)
19.03.2016 03:25 3,8 C 87 % 1020,4 hPa 0,0 l/m 0,0 km/h (0 Bft) NW 308 0 min 0,000 mm 0,0 UV-I 0 W/m 1,8 C 3,8 C 0,0 km/h (0 Bft)
19.03.2016 03:30 3,8 C 87 % 1020,4 hPa 0,0 l/m 0,0 km/h (0 Bft) NW 308 0 min 0,000 mm 0,0 UV-I 0 W/m 1,8 C 3,8 C 0,0 km/h (0 Bft)
19.03.2016 03:35 3,8 C 87 % 1020,3 hPa 0,0 l/m 0,0 km/h (0 Bft) NW 308 0 min 0,000 mm 0,0 UV-I 0 W/m 1,8 C 3,8 C 0,0 km/h (0 Bft)
19.03.2016 03:40 3,7 C 87 % 1020,2 hPa 0,0 l/m 0,0 km/h (0 Bft) NW 308 0 min 0,000 mm 0,0 UV-I 0 W/m 1,7 C 3,7 C 0,0 km/h (0 Bft)
19.03.2016 03:45 3,7 C 87 % 1020,2 hPa 0,0 l/m 0,0 km/h (0 Bft) NW 308 0 min 0,000 mm 0,0 UV-I 0 W/m 1,7 C 3,7 C 0,0 km/h (0 Bft)
19.03.2016 03:50 3,7 C 87 % 1020,1 hPa 0,0 l/m 0,0 km/h (0 Bft) NW 308 0 min 0,000 mm 0,0 UV-I 0 W/m 1,7 C 3,7 C 0,0 km/h (0 Bft)
19.03.2016 03:55 3,7 C 88 % 1020,2 hPa 0,0 l/m 0,0 km/h (0 Bft) NW 308 0 min 0,000 mm 0,0 UV-I 0 W/m 1,9 C 3,7 C 0,0 km/h (0 Bft)
19.03.2016 04:00 3,7 C 88 % 1020,2 hPa 0,0 l/m 0,0 km/h (0 Bft) NW 308 0 min 0,000 mm 0,0 UV-I 0 W/m 1,9 C 3,7 C 0,0 km/h (0 Bft)
19.03.2016 04:05 3,7 C 88 % 1020,3 hPa 0,0 l/m 0,0 km/h (0 Bft) NW 308 0 min 0,000 mm 0,0 UV-I 0 W/m 1,9 C 3,7 C 0,0 km/h (0 Bft)
19.03.2016 04:10 3,7 C 88 % 1020,1 hPa 0,0 l/m 0,0 km/h (0 Bft) NW 313 0 min 0,000 mm 0,0 UV-I 0 W/m 1,9 C 3,7 C 0,0 km/h (0 Bft)
19.03.2016 04:15 3,6 C 87 % 1020,1 hPa 0,0 l/m 0,0 km/h (0 Bft) NW 313 0 min 0,000 mm 0,0 UV-I 0 W/m 1,6 C 3,6 C 0,0 km/h (0 Bft)
19.03.2016 04:20 3,6 C 87 % 1020,1 hPa 0,0 l/m 0,0 km/h (0 Bft) W-NW 295 0 min 0,000 mm 0,0 UV-I 0 W/m 1,6 C 3,6 C 0,0 km/h (0 Bft)
19.03.2016 04:25 3,6 C 88 % 1020,2 hPa 0,0 l/m 0,0 km/h (0 Bft) W-NW 295 0 min 0,000 mm 0,0 UV-I 0 W/m 1,8 C 3,6 C 0,0 km/h (0 Bft)
19.03.2016 04:30 3,6 C 87 % 1020,2 hPa 0,0 l/m 0,0 km/h (0 Bft) W-NW 295 0 min 0,000 mm 0,0 UV-I 0 W/m 1,6 C 3,6 C 0,0 km/h (0 Bft)
19.03.2016 04:35 3,5 C 88 % 1020,1 hPa 0,0 l/m 0,0 km/h (0 Bft) W-NW 295 0 min 0,000 mm 0,0 UV-I 0 W/m 1,7 C 3,5 C 0,0 km/h (0 Bft)
19.03.2016 04:40 3,5 C 87 % 1020,1 hPa 0,0 l/m 0,0 km/h (0 Bft) W-NW 295 0 min 0,000 mm 0,0 UV-I 0 W/m 1,5 C 3,5 C 0,0 km/h (0 Bft)
19.03.2016 04:45 3,5 C 87 % 1020,1 hPa 0,0 l/m 0,0 km/h (0 Bft) W-NW 295 0 min 0,000 mm 0,0 UV-I 0 W/m 1,5 C 3,5 C 0,0 km/h (0 Bft)
19.03.2016 04:50 3,5 C 87 % 1020,1 hPa 0,0 l/m 0,0 km/h (0 Bft) NW 319 0 min 0,000 mm 0,0 UV-I 0 W/m 1,5 C 3,5 C 0,0 km/h (0 Bft)
19.03.2016 04:55 3,5 C 87 % 1020,1 hPa 0,0 l/m 0,0 km/h (0 Bft) NW 319 0 min 0,000 mm 0,0 UV-I 0 W/m 1,5 C 3,5 C 0,0 km/h (0 Bft)
19.03.2016 05:00 3,5 C 87 % 1020,2 hPa 0,0 l/m 0,0 km/h (0 Bft) NW 319 0 min 0,000 mm 0,0 UV-I 0 W/m 1,5 C 3,5 C 0,0 km/h (0 Bft)
19.03.2016 05:05 3,5 C 87 % 1020,1 hPa 0,0 l/m 0,0 km/h (0 Bft) NW 319 0 min 0,000 mm 0,0 UV-I 0 W/m 1,5 C 3,5 C 0,0 km/h (0 Bft)
19.03.2016 05:10 3,5 C 87 % 1020,1 hPa 0,0 l/m 0,0 km/h (0 Bft) NW 319 0 min 0,000 mm 0,0 UV-I 0 W/m 1,5 C 3,5 C 0,0 km/h (0 Bft)
19.03.2016 05:15 3,6 C 88 % 1020,0 hPa 0,0 l/m 0,0 km/h (0 Bft) NW 319 0 min 0,000 mm 0,0 UV-I 0 W/m 1,8 C 3,6 C 0,0 km/h (0 Bft)
19.03.2016 05:20 3,5 C 88 % 1020,0 hPa 0,0 l/m 0,0 km/h (0 Bft) NW 319 0 min 0,000 mm 0,0 UV-I 0 W/m 1,7 C 3,5 C 0,0 km/h (0 Bft)
19.03.2016 05:25 3,5 C 88 % 1020,0 hPa 0,0 l/m 0,0 km/h (0 Bft) NW 319 0 min 0,000 mm 0,0 UV-I 0 W/m 1,7 C 3,5 C 0,0 km/h (0 Bft)
19.03.2016 05:30 3,5 C 88 % 1020,0 hPa 0,0 l/m 0,0 km/h (0 Bft) NW 319 0 min 0,000 mm 0,0 UV-I 0 W/m 1,7 C 3,5 C 0,0 km/h (0 Bft)
19.03.2016 05:35 3,4 C 88 % 1020,0 hPa 0,0 l/m 0,0 km/h (0 Bft) NW 319 0 min 0,000 mm 0,0 UV-I 0 W/m 1,6 C 3,4 C 0,0 km/h (0 Bft)
19.03.2016 05:40 3,4 C 89 % 1020,0 hPa 0,0 l/m 0,0 km/h (0 Bft) NW 319 0 min 0,000 mm 0,0 UV-I 0 W/m 1,8 C 3,4 C 0,0 km/h (0 Bft)
19.03.2016 05:45 3,3 C 89 % 1019,9 hPa 0,0 l/m 0,0 km/h (0 Bft) NW 319 0 min 0,000 mm 0,0 UV-I 0 W/m 1,7 C 3,3 C 0,0 km/h (0 Bft)
19.03.2016 05:50 3,3 C 89 % 1020,0 hPa 0,0 l/m 0,0 km/h (0 Bft) NW 319 0 min 0,000 mm 0,0 UV-I 0 W/m 1,7 C 3,3 C 0,0 km/h (0 Bft)
19.03.2016 05:55 3,4 C 89 % 1019,9 hPa 0,0 l/m 0,0 km/h (0 Bft) NW 319 0 min 0,000 mm 0,0 UV-I 0 W/m 1,8 C 3,4 C 0,0 km/h (0 Bft)
19.03.2016 06:00 3,3 C 89 % 1020,0 hPa 0,0 l/m 0,0 km/h (0 Bft) NW 319 0 min 0,000 mm 0,0 UV-I 0 W/m 1,7 C 3,3 C 0,0 km/h (0 Bft)
19.03.2016 06:05 3,3 C 90 % 1020,0 hPa 0,0 l/m 0,0 km/h (0 Bft) NW 319 0 min 0,000 mm 0,0 UV-I 0 W/m 1,8 C 3,3 C 0,0 km/h (0 Bft)
19.03.2016 06:10 3,3 C 90 % 1020,0 hPa 0,0 l/m 0,0 km/h (0 Bft) NW 319 0 min 0,000 mm 0,0 UV-I 0 W/m 1,8 C 3,3 C 0,0 km/h (0 Bft)
19.03.2016 06:15 3,3 C 90 % 1020,1 hPa 0,0 l/m 0,0 km/h (0 Bft) NW 319 0 min 0,000 mm 0,0 UV-I 0 W/m 1,8 C 3,3 C 0,0 km/h (0 Bft)
19.03.2016 06:20 3,3 C 90 % 1020,1 hPa 0,0 l/m 0,0 km/h (0 Bft) NW 319 0 min 0,000 mm 0,0 UV-I 0 W/m 1,8 C 3,3 C 0,0 km/h (0 Bft)
19.03.2016 06:25 3,3 C 90 % 1020,1 hPa 0,0 l/m 0,0 km/h (0 Bft) NW 319 0 min 0,000 mm 0,0 UV-I 0 W/m 1,8 C 3,3 C 0,0 km/h (0 Bft)
19.03.2016 06:30 3,3 C 90 % 1020,1 hPa 0,0 l/m 0,0 km/h (0 Bft) NW 319 0 min 0,000 mm 0,0 UV-I 0 W/m 1,8 C 3,3 C 0,0 km/h (0 Bft)
19.03.2016 06:35 3,3 C 90 % 1020,1 hPa 0,0 l/m 0,0 km/h (0 Bft) NW 319 0 min 0,000 mm 0,0 UV-I 0 W/m 1,8 C 3,3 C 0,0 km/h (0 Bft)
19.03.2016 06:40 3,3 C 90 % 1020,3 hPa 0,0 l/m 0,0 km/h (0 Bft) NW 319 0 min 0,000 mm 0,0 UV-I 0 W/m 1,8 C 3,3 C 0,0 km/h (0 Bft)
19.03.2016 06:45 3,3 C 90 % 1020,3 hPa 0,0 l/m 0,0 km/h (0 Bft) NW 319 0 min 0,000 mm 0,0 UV-I 0 W/m 1,8 C 3,3 C 0,0 km/h (0 Bft)
19.03.2016 06:50 3,3 C 90 % 1020,1 hPa 0,0 l/m 0,0 km/h (0 Bft) NW 319 0 min 0,000 mm 0,0 UV-I 0 W/m 1,8 C 3,3 C 0,0 km/h (0 Bft)
19.03.2016 06:55 3,3 C 91 % 1020,2 hPa 0,0 l/m 0,0 km/h (0 Bft) NW 319 0 min 0,000 mm 0,0 UV-I 0 W/m 2,0 C 3,3 C 0,0 km/h (0 Bft)
19.03.2016 07:00 3,3 C 91 % 1020,3 hPa 0,0 l/m 0,0 km/h (0 Bft) NW 319 0 min 0,000 mm 0,0 UV-I 0 W/m 2,0 C 3,3 C 0,0 km/h (0 Bft)
19.03.2016 07:05 3,3 C 91 % 1020,3 hPa 0,0 l/m 0,0 km/h (0 Bft) NW 319 0 min 0,000 mm 0,0 UV-I 0 W/m 2,0 C 3,3 C 0,0 km/h (0 Bft)
19.03.2016 07:10 3,3 C 91 % 1020,3 hPa 0,0 l/m 0,0 km/h (0 Bft) NW 319 0 min 0,000 mm 0,0 UV-I 3 W/m 2,0 C 3,3 C 0,0 km/h (0 Bft)
19.03.2016 07:15 3,3 C 91 % 1020,4 hPa 0,0 l/m 0,0 km/h (0 Bft) NW 319 0 min 0,000 mm 0,0 UV-I 6 W/m 2,0 C 3,3 C 0,0 km/h (0 Bft)
19.03.2016 07:20 3,3 C 91 % 1020,4 hPa 0,0 l/m 0,0 km/h (0 Bft) NW 319 0 min 0,000 mm 0,0 UV-I 7 W/m 2,0 C 3,3 C 0,0 km/h (0 Bft)
19.03.2016 07:25 3,3 C 91 % 1020,4 hPa 0,0 l/m 0,0 km/h (0 Bft) NW 319 0 min 0,000 mm 0,0 UV-I 10 W/m 2,0 C 3,3 C 0,0 km/h (0 Bft)
19.03.2016 07:30 3,3 C 91 % 1020,5 hPa 0,0 l/m 0,0 km/h (0 Bft) NW 319 0 min 0,000 mm 0,0 UV-I 12 W/m 2,0 C 3,3 C 0,0 km/h (0 Bft)
19.03.2016 07:35 3,3 C 91 % 1020,5 hPa 0,0 l/m 0,0 km/h (0 Bft) NW 319 0 min 0,000 mm 0,0 UV-I 13 W/m 2,0 C 3,3 C 0,0 km/h (0 Bft)
19.03.2016 07:40 3,3 C 90 % 1020,5 hPa 0,0 l/m 0,0 km/h (0 Bft) NW 319 0 min 0,000 mm 0,0 UV-I 15 W/m 1,8 C 3,3 C 0,0 km/h (0 Bft)
19.03.2016 07:45 3,3 C 90 % 1020,6 hPa 0,0 l/m 0,0 km/h (0 Bft) NW 319 0 min 0,000 mm 0,0 UV-I 18 W/m 1,8 C 3,3 C 0,0 km/h (0 Bft)
19.03.2016 07:50 3,3 C 89 % 1020,6 hPa 0,0 l/m 0,0 km/h (0 Bft) NW 311 0 min 0,000 mm 0,0 UV-I 20 W/m 1,7 C 3,3 C 1,6 km/h (1 Bft)
19.03.2016 07:55 3,3 C 89 % 1020,7 hPa 0,0 l/m 0,0 km/h (0 Bft) NW 311 0 min 0,000 mm 0,0 UV-I 21 W/m 1,7 C 3,3 C 0,0 km/h (0 Bft)
19.03.2016 08:00 3,4 C 88 % 1020,7 hPa 0,0 l/m 0,0 km/h (0 Bft) NW 311 0 min 0,000 mm 0,0 UV-I 22 W/m 1,6 C 3,4 C 0,0 km/h (0 Bft)
19.03.2016 08:05 3,4 C 87 % 1020,7 hPa 0,0 l/m 0,0 km/h (0 Bft) NW 313 0 min 0,000 mm 0,0 UV-I 24 W/m 1,4 C 3,4 C 0,0 km/h (0 Bft)
19.03.2016 08:10 3,5 C 87 % 1020,8 hPa 0,0 l/m 0,0 km/h (0 Bft) NW 313 0 min 0,000 mm 0,0 UV-I 25 W/m 1,5 C 3,5 C 0,0 km/h (0 Bft)
19.03.2016 08:15 3,6 C 87 % 1020,8 hPa 0,0 l/m 0,0 km/h (0 Bft) NW 313 0 min 0,000 mm 0,0 UV-I 26 W/m 1,6 C 3,6 C 0,0 km/h (0 Bft)
19.03.2016 08:20 3,6 C 86 % 1020,8 hPa 0,0 l/m 0,0 km/h (0 Bft) NW 313 0 min 0,000 mm 0,0 UV-I 25 W/m 1,5 C 3,6 C 0,0 km/h (0 Bft)
19.03.2016 08:25 3,7 C 85 % 1020,8 hPa 0,0 l/m 0,0 km/h (0 Bft) NW 313 0 min 0,000 mm 0,0 UV-I 26 W/m 1,4 C 3,7 C 0,0 km/h (0 Bft)
19.03.2016 08:30 3,7 C 85 % 1020,8 hPa 0,0 l/m 0,0 km/h (0 Bft) NW 312 0 min 0,000 mm 0,0 UV-I 27 W/m 1,4 C 3,7 C 0,0 km/h (0 Bft)
19.03.2016 08:35 3,8 C 85 % 1020,9 hPa 0,0 l/m 0,0 km/h (0 Bft) NW 312 0 min 0,000 mm 0,0 UV-I 29 W/m 1,5 C 3,8 C 1,6 km/h (1 Bft)
19.03.2016 08:40 3,8 C 86 % 1021,0 hPa 0,0 l/m 0,0 km/h (0 Bft) NW 312 0 min 0,000 mm 0,0 UV-I 31 W/m 1,7 C 3,8 C 0,0 km/h (0 Bft)
19.03.2016 08:45 3,8 C 86 % 1021,0 hPa 0,0 l/m 0,0 km/h (0 Bft) NW 312 0 min 0,000 mm 0,0 UV-I 33 W/m 1,7 C 3,8 C 0,0 km/h (0 Bft)
19.03.2016 08:50 3,8 C 86 % 1021,0 hPa 0,0 l/m 0,0 km/h (0 Bft) NW 312 0 min 0,000 mm 0,0 UV-I 35 W/m 1,7 C 3,8 C 0,0 km/h (0 Bft)
19.03.2016 08:55 3,9 C 85 % 1021,0 hPa 0,0 l/m 0,0 km/h (0 Bft) NW 312 0 min 0,000 mm 0,0 UV-I 38 W/m 1,6 C 3,9 C 0,0 km/h (0 Bft)
19.03.2016 09:00 3,9 C 84 % 1021,0 hPa 0,0 l/m 0,0 km/h (0 Bft) NW 312 0 min 0,000 mm 0,0 UV-I 42 W/m 1,4 C 3,9 C 1,6 km/h (1 Bft)
19.03.2016 09:05 3,9 C 83 % 1021,0 hPa 0,0 l/m 0,0 km/h (0 Bft) NW 312 0 min 0,025 mm 0,0 UV-I 43 W/m 1,3 C 3,9 C 1,6 km/h (1 Bft)
19.03.2016 09:10 3,9 C 82 % 1021,0 hPa 0,0 l/m 0,0 km/h (0 Bft) NW 312 0 min 0,000 mm 0,0 UV-I 40 W/m 1,1 C 3,9 C 1,6 km/h (1 Bft)
19.03.2016 09:15 4,0 C 83 % 1021,1 hPa 0,0 l/m 0,0 km/h (0 Bft) NW 312 0 min 0,000 mm 0,0 UV-I 43 W/m 1,4 C 4,0 C 0,0 km/h (0 Bft)
19.03.2016 09:20 4,0 C 82 % 1021,2 hPa 0,0 l/m 0,0 km/h (0 Bft) NW 311 0 min 0,000 mm 0,0 UV-I 46 W/m 1,2 C 4,0 C 0,0 km/h (0 Bft)
19.03.2016 09:25 4,0 C 82 % 1021,2 hPa 0,0 l/m 0,0 km/h (0 Bft) W-NW 297 0 min 0,000 mm 0,0 UV-I 47 W/m 1,2 C 4,0 C 0,0 km/h (0 Bft)
19.03.2016 09:30 4,1 C 82 % 1021,2 hPa 0,0 l/m 0,0 km/h (0 Bft) W-NW 297 0 min 0,000 mm 0,0 UV-I 51 W/m 1,3 C 4,1 C 0,0 km/h (0 Bft)
19.03.2016 09:35 4,1 C 82 % 1021,3 hPa 0,0 l/m 0,3 km/h (0 Bft) NW 307 0 min 0,000 mm 0,0 UV-I 51 W/m 1,3 C 4,1 C 3,2 km/h (1 Bft)
19.03.2016 09:40 4,1 C 81 % 1021,3 hPa 0,0 l/m 0,3 km/h (0 Bft) NW 307 0 min 0,000 mm 0,0 UV-I 51 W/m 1,1 C 4,1 C 4,8 km/h (1 Bft)
19.03.2016 09:45 4,1 C 81 % 1021,3 hPa 0,0 l/m 0,0 km/h (0 Bft) N 5 0 min 0,000 mm 0,0 UV-I 55 W/m 1,1 C 4,1 C 0,0 km/h (0 Bft)
19.03.2016 09:50 4,2 C 82 % 1021,3 hPa 0,0 l/m 0,0 km/h (0 Bft) N-NW 341 0 min 0,000 mm 0,0 UV-I 60 W/m 1,4 C 4,2 C 0,0 km/h (0 Bft)
19.03.2016 09:55 4,2 C 81 % 1021,3 hPa 0,0 l/m 0,0 km/h (0 Bft) N-NW 340 0 min 0,000 mm 0,3 UV-I 69 W/m 1,2 C 4,2 C 0,0 km/h (0 Bft)
19.03.2016 10:00 4,2 C 80 % 1021,3 hPa 0,0 l/m 0,0 km/h (0 Bft) N-NW 340 0 min 0,000 mm 0,5 UV-I 76 W/m 1,1 C 4,2 C 0,0 km/h (0 Bft)
19.03.2016 10:05 4,3 C 80 % 1021,3 hPa 0,0 l/m 0,0 km/h (0 Bft) N-NW 340 0 min 0,026 mm 0,5 UV-I 77 W/m 1,2 C 4,3 C 0,0 km/h (0 Bft)
19.03.2016 10:10 4,3 C 81 % 1021,3 hPa 0,0 l/m 0,0 km/h (0 Bft) N-NW 340 0 min 0,000 mm 0,5 UV-I 80 W/m 1,3 C 4,3 C 0,0 km/h (0 Bft)
19.03.2016 10:15 4,3 C 79 % 1021,3 hPa 0,0 l/m 0,0 km/h (0 Bft) N-NW 340 0 min 0,000 mm 0,5 UV-I 83 W/m 1,0 C 4,3 C 0,0 km/h (0 Bft)
19.03.2016 10:20 4,4 C 80 % 1021,4 hPa 0,0 l/m 0,0 km/h (0 Bft) N-NW 340 0 min 0,000 mm 0,6 UV-I 88 W/m 1,3 C 4,4 C 0,0 km/h (0 Bft)
19.03.2016 10:25 4,6 C 80 % 1021,3 hPa 0,0 l/m 0,0 km/h (0 Bft) N-NW 340 0 min 0,000 mm 0,6 UV-I 99 W/m 1,5 C 4,6 C 0,0 km/h (0 Bft)
19.03.2016 10:30 4,7 C 80 % 1021,3 hPa 0,0 l/m 0,0 km/h (0 Bft) N-NW 340 0 min 0,000 mm 0,7 UV-I 108 W/m 1,6 C 4,7 C 0,0 km/h (0 Bft)
19.03.2016 10:35 4,8 C 78 % 1021,3 hPa 0,0 l/m 0,0 km/h (0 Bft) NO 45 0 min 0,000 mm 0,8 UV-I 128 W/m 1,3 C 4,8 C 0,0 km/h (0 Bft)
19.03.2016 10:40 4,9 C 79 % 1021,3 hPa 0,0 l/m 0,0 km/h (0 Bft) NO 45 0 min 0,000 mm 0,9 UV-I 146 W/m 1,6 C 4,9 C 0,0 km/h (0 Bft)
19.03.2016 10:45 5,1 C 76 % 1021,3 hPa 0,0 l/m 0,6 km/h (0 Bft) O-NO 74 0 min 0,000 mm 0,8 UV-I 140 W/m 1,2 C 5,1 C 4,8 km/h (1 Bft)
19.03.2016 10:50 5,0 C 77 % 1021,3 hPa 0,0 l/m 1,1 km/h (1 Bft) O-NO 72 0 min 0,000 mm 0,8 UV-I 129 W/m 1,3 C 5,0 C 6,4 km/h (2 Bft)
19.03.2016 10:55 5,1 C 77 % 1021,3 hPa 0,0 l/m 0,0 km/h (0 Bft) W 279 0 min 0,000 mm 0,8 UV-I 126 W/m 1,4 C 5,1 C 0,0 km/h (0 Bft)
19.03.2016 11:00 5,2 C 77 % 1021,3 hPa 0,0 l/m 0,0 km/h (0 Bft) NW 319 0 min 0,000 mm 0,8 UV-I 123 W/m 1,5 C 5,2 C 1,6 km/h (1 Bft)
19.03.2016 11:05 5,3 C 77 % 1021,3 hPa 0,0 l/m 0,0 km/h (0 Bft) NW 319 0 min 0,051 mm 0,8 UV-I 119 W/m 1,6 C 5,3 C 0,0 km/h (0 Bft)
19.03.2016 11:10 5,5 C 77 % 1021,3 hPa 0,0 l/m 0,0 km/h (0 Bft) NW 319 0 min 0,000 mm 0,8 UV-I 125 W/m 1,8 C 5,5 C 0,0 km/h (0 Bft)
19.03.2016 11:15 5,7 C 76 % 1021,3 hPa 0,0 l/m 0,0 km/h (0 Bft) NW 319 0 min 0,000 mm 0,9 UV-I 140 W/m 1,8 C 5,7 C 0,0 km/h (0 Bft)
19.03.2016 11:20 5,7 C 74 % 1021,2 hPa 0,0 l/m 0,0 km/h (0 Bft) O-NO 69 0 min 0,000 mm 0,9 UV-I 145 W/m 1,4 C 5,7 C 0,0 km/h (0 Bft)
19.03.2016 11:25 5,7 C 74 % 1021,3 hPa 0,0 l/m 0,0 km/h (0 Bft) N 11 0 min 0,000 mm 0,9 UV-I 155 W/m 1,4 C 5,7 C 0,0 km/h (0 Bft)
19.03.2016 11:30 5,8 C 75 % 1021,2 hPa 0,0 l/m 0,0 km/h (0 Bft) N 9 0 min 0,000 mm 1,0 UV-I 153 W/m 1,7 C 5,8 C 0,0 km/h (0 Bft)
19.03.2016 11:35 6,0 C 74 % 1021,2 hPa 0,0 l/m 0,0 km/h (0 Bft) NO 42 0 min 0,000 mm 1,0 UV-I 152 W/m 1,7 C 6,0 C 0,0 km/h (0 Bft)
19.03.2016 11:40 5,9 C 72 % 1021,3 hPa 0,0 l/m 0,3 km/h (0 Bft) O 90 0 min 0,000 mm 1,0 UV-I 154 W/m 1,2 C 5,9 C 3,2 km/h (1 Bft)
19.03.2016 11:45 5,8 C 73 % 1021,3 hPa 0,0 l/m 0,2 km/h (0 Bft) O-NO 63 0 min 0,000 mm 1,0 UV-I 155 W/m 1,3 C 5,8 C 3,2 km/h (1 Bft)
19.03.2016 11:50 5,8 C 74 % 1021,3 hPa 0,0 l/m 0,0 km/h (0 Bft) O-NO 63 0 min 0,000 mm 1,0 UV-I 153 W/m 1,5 C 5,8 C 0,0 km/h (0 Bft)
19.03.2016 11:55 6,0 C 73 % 1021,1 hPa 0,0 l/m 0,0 km/h (0 Bft) O-NO 63 0 min 0,000 mm 1,0 UV-I 159 W/m 1,5 C 6,0 C 0,0 km/h (0 Bft)
19.03.2016 12:00 6,2 C 71 % 1021,1 hPa 0,0 l/m 0,0 km/h (0 Bft) O-NO 63 0 min 0,000 mm 1,1 UV-I 172 W/m 1,3 C 6,2 C 0,0 km/h (0 Bft)
19.03.2016 12:05 6,3 C 71 % 1021,2 hPa 0,0 l/m 0,0 km/h (0 Bft) O-NO 63 0 min 0,050 mm 1,1 UV-I 173 W/m 1,4 C 6,3 C 0,0 km/h (0 Bft)
19.03.2016 12:09 6,4 C 70 % 1021,2 hPa 0,0 l/m 0,0 km/h (0 Bft) O-NO 63 0 min 0,000 mm 1,2 UV-I 186 W/m 1,3 C 6,4 C 0,0 km/h (0 Bft)
19.03.2016 12:10 6,4 C 71 % 1021,2 hPa 0,0 l/m 0,0 km/h (0 Bft) O-NO 63 0 min 0,000 mm 1,2 UV-I 193 W/m 1,5 C 6,4 C 0,0 km/h (0 Bft)
19.03.2016 12:15 6,6 C 71 % 1021,2 hPa 0,0 l/m 0,0 km/h (0 Bft) O-NO 63 0 min 0,000 mm 1,2 UV-I 187 W/m 1,7 C 6,6 C 0,0 km/h (0 Bft)
19.03.2016 12:20 6,7 C 69 % 1021,1 hPa 0,0 l/m 0,0 km/h (0 Bft) O-NO 63 0 min 0,000 mm 1,1 UV-I 173 W/m 1,4 C 6,7 C 0,0 km/h (0 Bft)
19.03.2016 12:25 6,8 C 69 % 1021,1 hPa 0,0 l/m 0,0 km/h (0 Bft) NO 34 0 min 0,000 mm 1,1 UV-I 169 W/m 1,5 C 6,8 C 1,6 km/h (1 Bft)
19.03.2016 12:30 6,8 C 69 % 1021,1 hPa 0,0 l/m 0,0 km/h (0 Bft) N-NW 327 0 min 0,000 mm 0,9 UV-I 149 W/m 1,5 C 6,8 C 0,0 km/h (0 Bft)
19.03.2016 12:35 6,7 C 69 % 1021,1 hPa 0,0 l/m 0,0 km/h (0 Bft) N-NW 327 0 min 0,000 mm 0,9 UV-I 138 W/m 1,4 C 6,7 C 0,0 km/h (0 Bft)
19.03.2016 12:40 6,8 C 71 % 1021,1 hPa 0,0 l/m 0,0 km/h (0 Bft) N-NW 327 0 min 0,000 mm 0,9 UV-I 134 W/m 1,9 C 6,8 C 0,0 km/h (0 Bft)
19.03.2016 12:45 7,0 C 70 % 1021,0 hPa 0,0 l/m 0,0 km/h (0 Bft) N-NO 27 0 min 0,000 mm 0,9 UV-I 137 W/m 1,9 C 7,0 C 0,0 km/h (0 Bft)
19.03.2016 12:50 7,1 C 69 % 1021,1 hPa 0,0 l/m 0,2 km/h (0 Bft) O-SO 106 0 min 0,000 mm 1,0 UV-I 155 W/m 1,8 C 7,1 C 3,2 km/h (1 Bft)
19.03.2016 12:55 6,9 C 68 % 1021,0 hPa 0,0 l/m 0,1 km/h (0 Bft) O-SO 118 0 min 0,000 mm 1,0 UV-I 165 W/m 1,4 C 6,9 C 1,6 km/h (1 Bft)
19.03.2016 13:00 6,7 C 70 % 1021,0 hPa 0,0 l/m 0,0 km/h (0 Bft) O-SO 106 0 min 0,077 mm 1,1 UV-I 165 W/m 1,6 C 6,7 C 0,0 km/h (0 Bft)
19.03.2016 13:05 6,9 C 69 % 1021,0 hPa 0,0 l/m 0,3 km/h (0 Bft) W 260 0 min 0,000 mm 1,0 UV-I 151 W/m 1,6 C 6,9 C 3,2 km/h (1 Bft)
19.03.2016 13:10 6,8 C 69 % 1021,0 hPa 0,0 l/m 0,3 km/h (0 Bft) W-NW 300 0 min 0,000 mm 1,0 UV-I 149 W/m 1,5 C 6,8 C 3,2 km/h (1 Bft)
19.03.2016 13:15 6,8 C 70 % 1020,9 hPa 0,0 l/m 2,5 km/h (1 Bft) W-NW 294 0 min 0,000 mm 1,0 UV-I 160 W/m 1,7 C 6,8 C 6,4 km/h (2 Bft)
19.03.2016 13:20 6,8 C 70 % 1020,9 hPa 0,0 l/m 0,8 km/h (0 Bft) W-NW 298 0 min 0,000 mm 1,0 UV-I 157 W/m 1,7 C 6,8 C 4,8 km/h (1 Bft)
19.03.2016 13:25 6,8 C 70 % 1020,8 hPa 0,0 l/m 0,5 km/h (0 Bft) W-NW 302 0 min 0,000 mm 1,0 UV-I 153 W/m 1,7 C 6,8 C 4,8 km/h (1 Bft)
19.03.2016 13:30 6,8 C 69 % 1020,8 hPa 0,0 l/m 1,5 km/h (1 Bft) NW 306 0 min 0,000 mm 0,9 UV-I 144 W/m 1,5 C 6,8 C 3,2 km/h (1 Bft)
19.03.2016 13:35 6,8 C 70 % 1020,8 hPa 0,0 l/m 1,4 km/h (1 Bft) W-NW 296 0 min 0,000 mm 0,9 UV-I 149 W/m 1,7 C 6,8 C 4,8 km/h (1 Bft)
19.03.2016 13:40 6,8 C 70 % 1020,8 hPa 0,0 l/m 0,3 km/h (0 Bft) W-NW 302 0 min 0,000 mm 1,0 UV-I 166 W/m 1,7 C 6,8 C 3,2 km/h (1 Bft)
19.03.2016 13:45 7,0 C 71 % 1020,7 hPa 0,0 l/m 0,0 km/h (0 Bft) W-NW 302 0 min 0,000 mm 1,1 UV-I 174 W/m 2,1 C 7,0 C 0,0 km/h (0 Bft)
19.03.2016 13:50 7,2 C 69 % 1020,7 hPa 0,0 l/m 0,0 km/h (0 Bft) O-NO 71 0 min 0,000 mm 1,0 UV-I 160 W/m 1,9 C 7,2 C 0,0 km/h (0 Bft)
19.03.2016 13:55 7,3 C 68 % 1020,8 hPa 0,0 l/m 1,2 km/h (1 Bft) W 281 0 min 0,000 mm 0,9 UV-I 150 W/m 1,8 C 7,3 C 6,4 km/h (2 Bft)
19.03.2016 14:00 7,2 C 69 % 1020,8 hPa 0,0 l/m 1,6 km/h (1 Bft) W-NW 298 0 min 0,076 mm 0,8 UV-I 134 W/m 1,9 C 7,2 C 6,4 km/h (2 Bft)
19.03.2016 14:05 7,0 C 69 % 1020,8 hPa 0,0 l/m 1,2 km/h (1 Bft) W-NW 296 0 min 0,000 mm 0,8 UV-I 125 W/m 1,7 C 7,0 C 4,8 km/h (1 Bft)
19.03.2016 14:10 6,9 C 69 % 1020,9 hPa 0,0 l/m 1,2 km/h (1 Bft) W-NW 300 0 min 0,000 mm 0,8 UV-I 131 W/m 1,6 C 6,9 C 6,4 km/h (2 Bft)
19.03.2016 14:15 6,9 C 69 % 1020,9 hPa 0,0 l/m 0,0 km/h (0 Bft) W-NW 295 0 min 0,000 mm 0,9 UV-I 147 W/m 1,6 C 6,9 C 0,0 km/h (0 Bft)
19.03.2016 14:20 6,9 C 70 % 1020,8 hPa 0,0 l/m 0,2 km/h (0 Bft) SW 229 0 min 0,000 mm 0,9 UV-I 158 W/m 1,8 C 6,9 C 3,2 km/h (1 Bft)
19.03.2016 14:25 6,9 C 69 % 1020,8 hPa 0,0 l/m 0,7 km/h (0 Bft) W-SW 248 0 min 0,000 mm 0,9 UV-I 158 W/m 1,6 C 6,9 C 4,8 km/h (1 Bft)
19.03.2016 14:30 6,9 C 70 % 1020,9 hPa 0,0 l/m 1,0 km/h (0 Bft) NW 321 0 min 0,000 mm 0,8 UV-I 140 W/m 1,8 C 6,9 C 4,8 km/h (1 Bft)
19.03.2016 14:35 7,0 C 69 % 1020,8 hPa 0,0 l/m 1,2 km/h (1 Bft) NW 318 0 min 0,000 mm 0,7 UV-I 122 W/m 1,7 C 7,0 C 6,4 km/h (2 Bft)
19.03.2016 14:40 7,0 C 69 % 1020,8 hPa 0,0 l/m 0,8 km/h (0 Bft) NW 306 0 min 0,000 mm 0,7 UV-I 116 W/m 1,7 C 7,0 C 6,4 km/h (2 Bft)
19.03.2016 14:45 7,1 C 68 % 1020,8 hPa 0,0 l/m 0,2 km/h (0 Bft) W-NW 296 0 min 0,000 mm 0,7 UV-I 116 W/m 1,6 C 7,1 C 3,2 km/h (1 Bft)
19.03.2016 14:50 7,2 C 68 % 1020,8 hPa 0,0 l/m 0,0 km/h (0 Bft) NW 304 0 min 0,000 mm 0,7 UV-I 122 W/m 1,7 C 7,2 C 0,0 km/h (0 Bft)
19.03.2016 14:55 7,4 C 69 % 1020,7 hPa 0,0 l/m 0,7 km/h (0 Bft) N-NO 27 0 min 0,000 mm 0,6 UV-I 111 W/m 2,1 C 7,4 C 4,8 km/h (1 Bft)
19.03.2016 15:00 7,5 C 68 % 1020,7 hPa 0,0 l/m 0,7 km/h (0 Bft) NW 306 0 min 0,051 mm 0,6 UV-I 111 W/m 2,0 C 7,5 C 8,0 km/h (2 Bft)
19.03.2016 15:05 7,4 C 68 % 1020,7 hPa 0,0 l/m 1,8 km/h (1 Bft) NW 315 0 min 0,000 mm 0,6 UV-I 111 W/m 1,9 C 7,4 C 9,7 km/h (2 Bft)
19.03.2016 15:10 7,4 C 67 % 1020,7 hPa 0,0 l/m 0,4 km/h (0 Bft) NW 309 0 min 0,000 mm 0,6 UV-I 113 W/m 1,7 C 7,4 C 4,8 km/h (1 Bft)
19.03.2016 15:15 7,4 C 68 % 1020,6 hPa 0,0 l/m 0,1 km/h (0 Bft) NW 326 0 min 0,000 mm 0,6 UV-I 114 W/m 1,9 C 7,4 C 3,2 km/h (1 Bft)
19.03.2016 15:20 7,4 C 67 % 1020,6 hPa 0,0 l/m 0,9 km/h (0 Bft) W-NW 300 0 min 0,000 mm 0,6 UV-I 117 W/m 1,7 C 7,4 C 4,8 km/h (1 Bft)
19.03.2016 15:25 7,4 C 68 % 1020,6 hPa 0,0 l/m 0,2 km/h (0 Bft) NW 309 0 min 0,000 mm 0,6 UV-I 110 W/m 1,9 C 7,4 C 1,6 km/h (1 Bft)
19.03.2016 15:30 7,4 C 67 % 1020,6 hPa 0,0 l/m 0,0 km/h (0 Bft) N 5 0 min 0,000 mm 0,6 UV-I 109 W/m 1,7 C 7,4 C 0,0 km/h (0 Bft)
19.03.2016 15:35 7,5 C 66 % 1020,6 hPa 0,0 l/m 0,0 km/h (0 Bft) N-NO 24 0 min 0,000 mm 0,6 UV-I 105 W/m 1,6 C 7,5 C 0,0 km/h (0 Bft)
19.03.2016 15:40 7,6 C 66 % 1020,7 hPa 0,0 l/m 0,2 km/h (0 Bft) NO 36 0 min 0,000 mm 0,5 UV-I 101 W/m 1,7 C 7,6 C 1,6 km/h (1 Bft)
19.03.2016 15:45 7,7 C 66 % 1020,6 hPa 0,0 l/m 0,0 km/h (0 Bft) O-SO 114 0 min 0,000 mm 0,5 UV-I 96 W/m 1,8 C 7,7 C 0,0 km/h (0 Bft)
19.03.2016 15:50 7,7 C 65 % 1020,6 hPa 0,0 l/m 0,0 km/h (0 Bft) O-NO 63 0 min 0,000 mm 0,5 UV-I 88 W/m 1,5 C 7,7 C 0,0 km/h (0 Bft)
19.03.2016 15:55 7,7 C 65 % 1020,6 hPa 0,0 l/m 0,0 km/h (0 Bft) N-NO 14 0 min 0,000 mm 0,1 UV-I 82 W/m 1,5 C 7,7 C 0,0 km/h (0 Bft)
19.03.2016 16:00 7,7 C 66 % 1020,6 hPa 0,0 l/m 0,0 km/h (0 Bft) N-NO 22 0 min 0,050 mm 0,0 UV-I 78 W/m 1,8 C 7,7 C 0,0 km/h (0 Bft)
19.03.2016 16:05 7,7 C 66 % 1020,6 hPa 0,0 l/m 0,0 km/h (0 Bft) SW 222 0 min 0,000 mm 0,0 UV-I 78 W/m 1,8 C 7,7 C 0,0 km/h (0 Bft)
19.03.2016 16:10 7,6 C 66 % 1020,6 hPa 0,0 l/m 0,0 km/h (0 Bft) N 355 0 min 0,000 mm 0,0 UV-I 75 W/m 1,7 C 7,6 C 0,0 km/h (0 Bft)
19.03.2016 16:15 7,6 C 66 % 1020,6 hPa 0,0 l/m 0,2 km/h (0 Bft) N-NW 338 0 min 0,000 mm 0,0 UV-I 73 W/m 1,7 C 7,6 C 4,8 km/h (1 Bft)
19.03.2016 16:20 7,4 C 66 % 1020,6 hPa 0,0 l/m 0,1 km/h (0 Bft) W-NW 300 0 min 0,000 mm 0,0 UV-I 69 W/m 1,5 C 7,4 C 3,2 km/h (1 Bft)
19.03.2016 16:25 7,5 C 67 % 1020,6 hPa 0,0 l/m 0,0 km/h (0 Bft) W-NW 300 0 min 0,000 mm 0,0 UV-I 66 W/m 1,8 C 7,5 C 0,0 km/h (0 Bft)
19.03.2016 16:30 7,5 C 67 % 1020,6 hPa 0,0 l/m 0,0 km/h (0 Bft) W-NW 300 0 min 0,000 mm 0,0 UV-I 65 W/m 1,8 C 7,5 C 0,0 km/h (0 Bft)
19.03.2016 16:35 7,5 C 67 % 1020,6 hPa 0,0 l/m 0,2 km/h (0 Bft) NW 305 0 min 0,000 mm 0,0 UV-I 66 W/m 1,8 C 7,5 C 3,2 km/h (1 Bft)
19.03.2016 16:40 7,5 C 67 % 1020,7 hPa 0,0 l/m 0,2 km/h (0 Bft) NW 306 0 min 0,000 mm 0,0 UV-I 59 W/m 1,8 C 7,5 C 3,2 km/h (1 Bft)
19.03.2016 16:45 7,4 C 67 % 1020,7 hPa 0,0 l/m 0,0 km/h (0 Bft) NW 311 0 min 0,000 mm 0,0 UV-I 49 W/m 1,7 C 7,4 C 0,0 km/h (0 Bft)
19.03.2016 16:50 7,5 C 67 % 1020,7 hPa 0,0 l/m 0,0 km/h (0 Bft) NW 311 0 min 0,000 mm 0,0 UV-I 44 W/m 1,8 C 7,5 C 0,0 km/h (0 Bft)
19.03.2016 16:55 7,5 C 67 % 1020,7 hPa 0,0 l/m 0,0 km/h (0 Bft) N-NO 28 0 min 0,000 mm 0,0 UV-I 41 W/m 1,8 C 7,5 C 0,0 km/h (0 Bft)
19.03.2016 17:00 7,5 C 67 % 1020,6 hPa 0,0 l/m 0,0 km/h (0 Bft) N-NO 28 0 min 0,026 mm 0,0 UV-I 37 W/m 1,8 C 7,5 C 0,0 km/h (0 Bft)
19.03.2016 17:05 7,4 C 67 % 1020,6 hPa 0,0 l/m 0,0 km/h (0 Bft) N 355 0 min 0,000 mm 0,0 UV-I 33 W/m 1,7 C 7,4 C 0,0 km/h (0 Bft)
19.03.2016 17:10 7,4 C 68 % 1020,6 hPa 0,0 l/m 0,0 km/h (0 Bft) N 350 0 min 0,000 mm 0,0 UV-I 29 W/m 1,9 C 7,4 C 0,0 km/h (0 Bft)
19.03.2016 17:15 7,3 C 69 % 1020,6 hPa 0,0 l/m 0,4 km/h (0 Bft) W-NW 296 0 min 0,000 mm 0,0 UV-I 26 W/m 2,0 C 7,3 C 4,8 km/h (1 Bft)
19.03.2016 17:20 7,2 C 70 % 1020,6 hPa 0,0 l/m 0,1 km/h (0 Bft) NW 310 0 min 0,000 mm 0,0 UV-I 24 W/m 2,1 C 7,2 C 3,2 km/h (1 Bft)
19.03.2016 17:25 7,1 C 70 % 1020,7 hPa 0,0 l/m 0,2 km/h (0 Bft) NW 322 0 min 0,000 mm 0,0 UV-I 21 W/m 2,0 C 7,1 C 4,8 km/h (1 Bft)
19.03.2016 17:30 6,9 C 70 % 1020,6 hPa 0,0 l/m 0,0 km/h (0 Bft) N-NO 14 0 min 0,000 mm 0,0 UV-I 18 W/m 1,8 C 6,9 C 1,6 km/h (1 Bft)
19.03.2016 17:35 6,9 C 70 % 1020,6 hPa 0,0 l/m 0,0 km/h (0 Bft) O-NO 61 0 min 0,000 mm 0,0 UV-I 17 W/m 1,8 C 6,9 C 0,0 km/h (0 Bft)
19.03.2016 17:40 6,9 C 71 % 1020,6 hPa 0,0 l/m 0,0 km/h (0 Bft) O-NO 61 0 min 0,000 mm 0,0 UV-I 16 W/m 2,0 C 6,9 C 0,0 km/h (0 Bft)
19.03.2016 17:45 6,9 C 70 % 1020,6 hPa 0,0 l/m 0,0 km/h (0 Bft) N-NW 342 0 min 0,000 mm 0,0 UV-I 13 W/m 1,8 C 6,9 C 0,0 km/h (0 Bft)
19.03.2016 17:50 6,9 C 71 % 1020,6 hPa 0,0 l/m 0,0 km/h (0 Bft) N-NW 338 0 min 0,000 mm 0,0 UV-I 13 W/m 2,0 C 6,9 C 0,0 km/h (0 Bft)
19.03.2016 17:55 6,8 C 70 % 1020,6 hPa 0,0 l/m 0,0 km/h (0 Bft) W-NW 300 0 min 0,000 mm 0,0 UV-I 11 W/m 1,7 C 6,8 C 0,0 km/h (0 Bft)
19.03.2016 18:00 6,7 C 70 % 1020,7 hPa 0,0 l/m 0,0 km/h (0 Bft) W-NW 300 0 min 0,025 mm 0,0 UV-I 8 W/m 1,6 C 6,7 C 0,0 km/h (0 Bft)
19.03.2016 18:05 6,7 C 71 % 1020,8 hPa 0,0 l/m 0,0 km/h (0 Bft) NW 317 0 min 0,000 mm 0,0 UV-I 5 W/m 1,8 C 6,7 C 0,0 km/h (0 Bft)
19.03.2016 18:10 6,6 C 71 % 1020,8 hPa 0,0 l/m 0,0 km/h (0 Bft) NW 317 0 min 0,000 mm 0,0 UV-I 5 W/m 1,7 C 6,6 C 0,0 km/h (0 Bft)
19.03.2016 18:15 6,5 C 71 % 1020,8 hPa 0,0 l/m 0,0 km/h (0 Bft) NW 315 0 min 0,000 mm 0,0 UV-I 5 W/m 1,6 C 6,5 C 0,0 km/h (0 Bft)
19.03.2016 18:20 6,4 C 71 % 1020,7 hPa 0,0 l/m 0,0 km/h (0 Bft) NW 306 0 min 0,000 mm 0,0 UV-I 2 W/m 1,5 C 6,4 C 3,2 km/h (1 Bft)
19.03.2016 18:25 6,3 C 71 % 1020,8 hPa 0,0 l/m 0,2 km/h (0 Bft) NW 322 0 min 0,000 mm 0,0 UV-I 0 W/m 1,4 C 6,3 C 4,8 km/h (1 Bft)
19.03.2016 18:30 6,2 C 72 % 1020,9 hPa 0,0 l/m 0,0 km/h (0 Bft) N-NW 336 0 min 0,000 mm 0,0 UV-I 0 W/m 1,5 C 6,2 C 0,0 km/h (0 Bft)
19.03.2016 18:35 6,2 C 72 % 1020,9 hPa 0,0 l/m 0,0 km/h (0 Bft) N-NW 336 0 min 0,000 mm 0,0 UV-I 0 W/m 1,5 C 6,2 C 0,0 km/h (0 Bft)
19.03.2016 18:40 6,2 C 72 % 1020,9 hPa 0,0 l/m 0,0 km/h (0 Bft) N-NW 336 0 min 0,000 mm 0,0 UV-I 0 W/m 1,5 C 6,2 C 0,0 km/h (0 Bft)
19.03.2016 18:45 6,2 C 72 % 1020,8 hPa 0,0 l/m 0,0 km/h (0 Bft) N-NW 336 0 min 0,000 mm 0,0 UV-I 0 W/m 1,5 C 6,2 C 0,0 km/h (0 Bft)
19.03.2016 18:50 6,1 C 73 % 1020,9 hPa 0,0 l/m 0,0 km/h (0 Bft) N-NW 336 0 min 0,000 mm 0,0 UV-I 0 W/m 1,6 C 6,1 C 0,0 km/h (0 Bft)
19.03.2016 18:55 6,1 C 72 % 1020,9 hPa 0,0 l/m 0,0 km/h (0 Bft) N-NW 336 0 min 0,000 mm 0,0 UV-I 0 W/m 1,4 C 6,1 C 0,0 km/h (0 Bft)
19.03.2016 19:00 6,0 C 72 % 1020,9 hPa 0,0 l/m 0,1 km/h (0 Bft) W-NW 294 0 min 0,000 mm 0,0 UV-I 0 W/m 1,3 C 6,0 C 3,2 km/h (1 Bft)
19.03.2016 19:05 5,9 C 73 % 1021,0 hPa 0,0 l/m 0,0 km/h (0 Bft) NW 308 0 min 0,000 mm 0,0 UV-I 0 W/m 1,4 C 5,9 C 0,0 km/h (0 Bft)
19.03.2016 19:10 5,8 C 73 % 1021,0 hPa 0,0 l/m 0,0 km/h (0 Bft) NW 308 0 min 0,000 mm 0,0 UV-I 0 W/m 1,3 C 5,8 C 0,0 km/h (0 Bft)
19.03.2016 19:15 5,7 C 73 % 1020,9 hPa 0,0 l/m 0,2 km/h (0 Bft) W-NW 302 0 min 0,000 mm 0,0 UV-I 0 W/m 1,2 C 5,7 C 4,8 km/h (1 Bft)
19.03.2016 19:20 5,7 C 74 % 1021,0 hPa 0,0 l/m 0,0 km/h (0 Bft) NW 311 0 min 0,000 mm 0,0 UV-I 0 W/m 1,4 C 5,7 C 0,0 km/h (0 Bft)
19.03.2016 19:25 5,7 C 74 % 1021,0 hPa 0,0 l/m 0,2 km/h (0 Bft) W-NW 300 0 min 0,000 mm 0,0 UV-I 0 W/m 1,4 C 5,7 C 1,6 km/h (1 Bft)
19.03.2016 19:30 5,6 C 74 % 1021,1 hPa 0,0 l/m 0,1 km/h (0 Bft) W-NW 300 0 min 0,000 mm 0,0 UV-I 0 W/m 1,3 C 5,6 C 1,6 km/h (1 Bft)
19.03.2016 19:35 5,6 C 74 % 1021,1 hPa 0,0 l/m 0,0 km/h (0 Bft) W-NW 299 0 min 0,000 mm 0,0 UV-I 0 W/m 1,3 C 5,6 C 0,0 km/h (0 Bft)
19.03.2016 19:40 5,6 C 74 % 1021,1 hPa 0,0 l/m 0,0 km/h (0 Bft) NW 311 0 min 0,000 mm 0,0 UV-I 0 W/m 1,3 C 5,6 C 0,0 km/h (0 Bft)
19.03.2016 19:45 5,6 C 74 % 1021,0 hPa 0,0 l/m 0,0 km/h (0 Bft) NW 311 0 min 0,000 mm 0,0 UV-I 0 W/m 1,3 C 5,6 C 0,0 km/h (0 Bft)
19.03.2016 19:50 5,6 C 74 % 1021,0 hPa 0,0 l/m 0,0 km/h (0 Bft) NW 311 0 min 0,000 mm 0,0 UV-I 0 W/m 1,3 C 5,6 C 0,0 km/h (0 Bft)
19.03.2016 19:55 5,6 C 75 % 1021,1 hPa 0,0 l/m 0,0 km/h (0 Bft) NW 311 0 min 0,000 mm 0,0 UV-I 0 W/m 1,5 C 5,6 C 0,0 km/h (0 Bft)
19.03.2016 20:00 5,5 C 75 % 1021,0 hPa 0,0 l/m 0,1 km/h (0 Bft) W-NW 302 0 min 0,026 mm 0,0 UV-I 0 W/m 1,4 C 5,5 C 3,2 km/h (1 Bft)
19.03.2016 20:05 5,5 C 75 % 1021,1 hPa 0,0 l/m 0,0 km/h (0 Bft) W-NW 302 0 min 0,000 mm 0,0 UV-I 0 W/m 1,4 C 5,5 C 0,0 km/h (0 Bft)
19.03.2016 20:10 5,4 C 76 % 1021,1 hPa 0,0 l/m 0,0 km/h (0 Bft) W-NW 302 0 min 0,000 mm 0,0 UV-I 0 W/m 1,5 C 5,4 C 0,0 km/h (0 Bft)
19.03.2016 20:15 5,4 C 76 % 1021,1 hPa 0,0 l/m 0,1 km/h (0 Bft) NW 317 0 min 0,000 mm 0,0 UV-I 0 W/m 1,5 C 5,4 C 3,2 km/h (1 Bft)
19.03.2016 20:20 5,4 C 76 % 1021,2 hPa 0,0 l/m 0,6 km/h (0 Bft) W-NW 287 0 min 0,000 mm 0,0 UV-I 0 W/m 1,5 C 5,4 C 8,0 km/h (2 Bft)
19.03.2016 20:25 5,3 C 77 % 1021,3 hPa 0,0 l/m 1,1 km/h (1 Bft) NW 313 0 min 0,000 mm 0,0 UV-I 0 W/m 1,6 C 5,3 C 4,8 km/h (1 Bft)
19.03.2016 20:30 5,3 C 77 % 1021,3 hPa 0,0 l/m 1,7 km/h (1 Bft) NW 311 0 min 0,000 mm 0,0 UV-I 0 W/m 1,6 C 5,3 C 9,7 km/h (2 Bft)
19.03.2016 20:35 5,2 C 77 % 1021,3 hPa 0,0 l/m 1,1 km/h (1 Bft) W-NW 302 0 min 0,000 mm 0,0 UV-I 0 W/m 1,5 C 5,2 C 4,8 km/h (1 Bft)
19.03.2016 20:40 5,2 C 77 % 1021,4 hPa 0,0 l/m 0,5 km/h (0 Bft) W-NW 282 0 min 0,000 mm 0,0 UV-I 0 W/m 1,5 C 5,2 C 3,2 km/h (1 Bft)
19.03.2016 20:45 5,2 C 77 % 1021,4 hPa 0,0 l/m 0,2 km/h (0 Bft) NW 311 0 min 0,000 mm 0,0 UV-I 0 W/m 1,5 C 5,2 C 3,2 km/h (1 Bft)
19.03.2016 20:50 5,1 C 76 % 1021,3 hPa 0,0 l/m 0,1 km/h (0 Bft) NW 311 0 min 0,000 mm 0,0 UV-I 0 W/m 1,2 C 5,1 C 3,2 km/h (1 Bft)
19.03.2016 20:55 5,1 C 76 % 1021,3 hPa 0,0 l/m 0,3 km/h (0 Bft) NW 313 0 min 0,000 mm 0,0 UV-I 0 W/m 1,2 C 5,1 C 6,4 km/h (2 Bft)
19.03.2016 21:00 5,1 C 76 % 1021,4 hPa 0,0 l/m 0,0 km/h (0 Bft) NW 313 0 min 0,025 mm 0,0 UV-I 0 W/m 1,2 C 5,1 C 0,0 km/h (0 Bft)
19.03.2016 21:05 5,0 C 76 % 1021,3 hPa 0,0 l/m 0,0 km/h (0 Bft) NW 313 0 min 0,000 mm 0,0 UV-I 0 W/m 1,1 C 5,0 C 0,0 km/h (0 Bft)
19.03.2016 21:10 5,0 C 76 % 1021,3 hPa 0,0 l/m 0,0 km/h (0 Bft) NW 315 0 min 0,000 mm 0,0 UV-I 0 W/m 1,1 C 5,0 C 0,0 km/h (0 Bft)
19.03.2016 21:15 5,0 C 76 % 1021,3 hPa 0,0 l/m 0,0 km/h (0 Bft) NW 315 0 min 0,000 mm 0,0 UV-I 0 W/m 1,1 C 5,0 C 0,0 km/h (0 Bft)
19.03.2016 21:20 5,0 C 76 % 1021,3 hPa 0,0 l/m 0,0 km/h (0 Bft) N-NW 327 0 min 0,000 mm 0,0 UV-I 0 W/m 1,1 C 5,0 C 0,0 km/h (0 Bft)
19.03.2016 21:25 4,9 C 77 % 1021,3 hPa 0,0 l/m 0,0 km/h (0 Bft) N-NW 327 0 min 0,000 mm 0,0 UV-I 0 W/m 1,2 C 4,9 C 0,0 km/h (0 Bft)
19.03.2016 21:30 4,9 C 77 % 1021,3 hPa 0,0 l/m 0,0 km/h (0 Bft) NW 309 0 min 0,000 mm 0,0 UV-I 0 W/m 1,2 C 4,9 C 0,0 km/h (0 Bft)
19.03.2016 21:35 4,9 C 77 % 1021,3 hPa 0,0 l/m 0,0 km/h (0 Bft) N 350 0 min 0,000 mm 0,0 UV-I 0 W/m 1,2 C 4,9 C 0,0 km/h (0 Bft)
19.03.2016 21:40 4,9 C 77 % 1021,3 hPa 0,0 l/m 0,0 km/h (0 Bft) N 355 0 min 0,000 mm 0,0 UV-I 0 W/m 1,2 C 4,9 C 0,0 km/h (0 Bft)
19.03.2016 21:45 4,9 C 76 % 1021,3 hPa 0,0 l/m 0,0 km/h (0 Bft) N 355 0 min 0,000 mm 0,0 UV-I 0 W/m 1,0 C 4,9 C 0,0 km/h (0 Bft)
19.03.2016 21:50 4,8 C 76 % 1021,3 hPa 0,0 l/m 0,0 km/h (0 Bft) NW 313 0 min 0,000 mm 0,0 UV-I 0 W/m 0,9 C 4,8 C 0,0 km/h (0 Bft)
19.03.2016 21:55 4,8 C 76 % 1021,3 hPa 0,0 l/m 0,0 km/h (0 Bft) N 349 0 min 0,000 mm 0,0 UV-I 0 W/m 0,9 C 4,8 C 0,0 km/h (0 Bft)
19.03.2016 22:00 4,8 C 76 % 1021,3 hPa 0,0 l/m 0,0 km/h (0 Bft) N 349 0 min 0,025 mm 0,0 UV-I 0 W/m 0,9 C 4,8 C 0,0 km/h (0 Bft)
19.03.2016 22:05 4,7 C 76 % 1021,3 hPa 0,0 l/m 0,0 km/h (0 Bft) N 349 0 min 0,000 mm 0,0 UV-I 0 W/m 0,8 C 4,7 C 0,0 km/h (0 Bft)
19.03.2016 22:10 4,7 C 76 % 1021,3 hPa 0,0 l/m 0,0 km/h (0 Bft) N 349 0 min 0,000 mm 0,0 UV-I 0 W/m 0,8 C 4,7 C 0,0 km/h (0 Bft)
19.03.2016 22:15 4,7 C 76 % 1021,4 hPa 0,0 l/m 0,0 km/h (0 Bft) W-NW 298 0 min 0,000 mm 0,0 UV-I 0 W/m 0,8 C 4,7 C 0,0 km/h (0 Bft)
19.03.2016 22:20 4,6 C 76 % 1021,4 hPa 0,0 l/m 0,0 km/h (0 Bft) N 350 0 min 0,000 mm 0,0 UV-I 0 W/m 0,7 C 4,6 C 1,6 km/h (1 Bft)
19.03.2016 22:25 4,6 C 77 % 1021,4 hPa 0,0 l/m 0,0 km/h (0 Bft) N-NW 340 0 min 0,000 mm 0,0 UV-I 0 W/m 0,9 C 4,6 C 0,0 km/h (0 Bft)
19.03.2016 22:30 4,5 C 77 % 1021,4 hPa 0,0 l/m 0,0 km/h (0 Bft) N 355 0 min 0,000 mm 0,0 UV-I 0 W/m 0,8 C 4,5 C 1,6 km/h (1 Bft)
19.03.2016 22:35 4,4 C 77 % 1021,4 hPa 0,0 l/m 0,8 km/h (0 Bft) NW 306 0 min 0,000 mm 0,0 UV-I 0 W/m 0,7 C 4,4 C 6,4 km/h (2 Bft)
19.03.2016 22:40 4,3 C 78 % 1021,5 hPa 0,0 l/m 0,5 km/h (0 Bft) NW 325 0 min 0,000 mm 0,0 UV-I 0 W/m 0,8 C 4,3 C 6,4 km/h (2 Bft)
19.03.2016 22:45 4,3 C 77 % 1021,5 hPa 0,0 l/m 0,6 km/h (0 Bft) NW 311 0 min 0,000 mm 0,0 UV-I 0 W/m 0,6 C 4,3 C 6,4 km/h (2 Bft)
19.03.2016 22:50 4,2 C 77 % 1021,5 hPa 0,0 l/m 0,1 km/h (0 Bft) N-NO 18 0 min 0,000 mm 0,0 UV-I 0 W/m 0,5 C 4,2 C 3,2 km/h (1 Bft)
19.03.2016 22:55 4,1 C 78 % 1021,4 hPa 0,0 l/m 0,0 km/h (0 Bft) N-NO 18 0 min 0,000 mm 0,0 UV-I 0 W/m 0,6 C 4,1 C 0,0 km/h (0 Bft)
19.03.2016 23:00 4,1 C 78 % 1021,4 hPa 0,0 l/m 0,0 km/h (0 Bft) W-NW 296 0 min 0,026 mm 0,0 UV-I 0 W/m 0,6 C 4,1 C 0,0 km/h (0 Bft)
19.03.2016 23:05 4,1 C 78 % 1021,4 hPa 0,0 l/m 0,0 km/h (0 Bft) NW 304 0 min 0,000 mm 0,0 UV-I 0 W/m 0,6 C 4,1 C 0,0 km/h (0 Bft)
19.03.2016 23:10 4,1 C 78 % 1021,4 hPa 0,0 l/m 0,0 km/h (0 Bft) NW 323 0 min 0,000 mm 0,0 UV-I 0 W/m 0,6 C 4,1 C 0,0 km/h (0 Bft)
19.03.2016 23:15 4,1 C 78 % 1021,3 hPa 0,0 l/m 0,0 km/h (0 Bft) NW 323 0 min 0,000 mm 0,0 UV-I 0 W/m 0,6 C 4,1 C 0,0 km/h (0 Bft)
19.03.2016 23:20 4,1 C 79 % 1021,4 hPa 0,0 l/m 0,0 km/h (0 Bft) NW 323 0 min 0,000 mm 0,0 UV-I 0 W/m 0,8 C 4,1 C 0,0 km/h (0 Bft)
19.03.2016 23:25 4,0 C 78 % 1021,3 hPa 0,0 l/m 0,6 km/h (0 Bft) W-NW 301 0 min 0,000 mm 0,0 UV-I 0 W/m 0,5 C 4,0 C 8,0 km/h (2 Bft)
19.03.2016 23:30 3,9 C 79 % 1021,2 hPa 0,0 l/m 0,0 km/h (0 Bft) W-NW 303 0 min 0,000 mm 0,0 UV-I 0 W/m 0,6 C 3,9 C 0,0 km/h (0 Bft)
19.03.2016 23:35 3,9 C 78 % 1021,2 hPa 0,0 l/m 0,5 km/h (0 Bft) NW 306 0 min 0,000 mm 0,0 UV-I 0 W/m 0,4 C 3,9 C 8,0 km/h (2 Bft)
19.03.2016 23:40 3,9 C 79 % 1021,2 hPa 0,0 l/m 0,2 km/h (0 Bft) NW 309 0 min 0,000 mm 0,0 UV-I 0 W/m 0,6 C 3,9 C 4,8 km/h (1 Bft)
19.03.2016 23:45 3,9 C 78 % 1021,2 hPa 0,0 l/m 0,0 km/h (0 Bft) W-NW 284 0 min 0,000 mm 0,0 UV-I 0 W/m 0,4 C 3,9 C 1,6 km/h (1 Bft)
19.03.2016 23:50 3,9 C 78 % 1021,2 hPa 0,0 l/m 0,4 km/h (0 Bft) W-NW 299 0 min 0,000 mm 0,0 UV-I 0 W/m 0,4 C 3,9 C 8,0 km/h (2 Bft)
19.03.2016 23:55 3,8 C 79 % 1021,2 hPa 0,0 l/m 0,1 km/h (0 Bft) NW 308 0 min 0,000 mm 0,0 UV-I 0 W/m 0,5 C 3,8 C 1,6 km/h (1 Bft)
_ Min-Zeit 07:05 15:50 05:45 - 00:00 - - - - - - 23:35 05:45 00:00
Minimum _ 3,2 C 65 % 1019,9 hPa - 0,0 km/h (0 Bft) - - - - - - 0,4 C 3,3 C 0,0 km/h (0 Bft)
_ Max-Zeit 15:45 06:55 22:40 00:00 13:15 - - 00:00 13:00 12:09 12:10 13:45 15:45 15:05
Maximum _ 7,7 C 91 % 1021,5 hPa 0,0 l/m 2,5 km/h
W-NW (1 Bft)
- - 0 min 0,077 mm 1,2 UV-I 193 W/m 2,1 C 7,7 C 9,7 km/h
W-NW (2 Bft)
Durchschnitt _ 5,0 C 79 % 1020,8 hPa #0,0 l/m 0,1 km/h (0 Bft) W-NW - #0 min. #0,559 mm 0,8 UV-I 87 W/m 1,5 C 5,0 C 1,2 km/h (1 Bft)